978  
FPUS83 KFGF 241331  
OPUFGF  
PRAIRIE TO PINES WEATHER ROUNDUP  
NATIONAL WEATHER SERVICE EASTERN NORTH DAKOTA/GRAND FORKS ND  
800 AM CDT FRI MAR 24 2017  
 
**SATELLITE DATA USED TO AUGMENT SKY COVER AT AUTOMATED STATIONS**  
***** WEATHER ACROSS EASTERN NORTH DAKOTA *****  
 
CITY SKY/WX TMP DP RH WIND PRES REMARKS  
GRAND FORKS FAIR 30 27 88 N14 30.11R WCI 19  
GRAND FORKS AF FAIR 28 25 88 N13 30.12R WCI 18  
GRAND CITY NWS NOT AVBL  
BUXTON NOT AVBL  
DEVILS LAKE FAIR 25 22 88 N8 30.13R WCI 16  
FARGO CLOUDY 35 33 92 N10 30.08R FOG  
WAHPETON ARPT CLOUDY 34 32 93 N10 30.04S  

 
 
***** WEATHER ACROSS CENTRAL AND WESTERN NORTH DAKOTA *****  
 
CITY SKY/WX TMP DP RH WIND PRES REMARKS  
JAMESTOWN FAIR 30 28 92 N7 30.08R WCI 23  
BISMARCK FAIR 28 26 92 CALM 30.09R  
MINOT FAIR 25 23 92 N6 30.12R WCI 18  
MINOT AFB FAIR 26 23 91 E8 30.12R WCI 17  
GARRISON N/A 26 23 88 N5 30.09R WCI 20  
WILLISTON FAIR 24 23 96 CALM 30.09R FOG  
DICKINSON FOG 25 24 96 NW3 30.05R VSB 3/4  
HETTINGER FOG 33 32 96 NW9 30.05R VSB<1/4  

 
 
***** OTHER OBSERVATIONS NORTHEAST NORTH DAKOTA *****  
 
CITY SKY/WX TMP DP RH WIND PRES REMARKS  
WALHALLA NOT AVBL  
LANGDON FAIR 23 23 100 N10 30.13R WCI 12  
CAVALIER NOT AVBL  
GRAFTON FAIR 28 27 93 N14 30.15R WCI 17  
CANDO NOT AVBL  
FORT TOTTEN N/A 24 24 100 N5 29.95S WCI 18  
ROLLA FAIR 23 23 100 N9 30.15R WCI 13  
RUGBY N/A 21 21 100 NE9 30.13S WCI 11  
***** THE ABOVE OBSERVATIONS ARE NON NWS ARE NOT QUALITY  
CONTROLLED AND MAY MIS-REPORT RAIN FOR SNOW...  

 
 
***** OTHER OBSERVATIONS SOUTHEAST NORTH DAKOTA *****  
 
CITY SKY/WX TMP DP RH WIND PRES REMARKS  
COOPERSTOWN FAIR 30 27 86 N13 30.11R WCI 20  
VALLEY CITY FAIR 30 30 100 N9 30.10R WCI 22  
OAKES NOT AVBL  
GWINNER CLOUDY 32 32 100 MISG 30.06R FOG  
SHEYENNE NWR N/A 33 33 100 N6 29.95  
BUFFALO NOT AVBL  
WYNDMERE N/A 36 36 100 N8 N/A  
***** THE ABOVE OBSERVATIONS ARE NON NWS ARE NOT QUALITY  
CONTROLLED AND MAY MIS-REPORT RAIN FOR SNOW...  

 
 
***** WEATHER ACROSS NORTHERN MINNESOTA *****  
 
CITY SKY/WX TMP DP RH WIND PRES REMARKS  
FLAG ISLAND FAIR 28 25 86 NW8 30.06R WCI 20  
WARROAD FAIR 28 25 86 NW9 30.07R WCI 20  
ROSEAU FAIR 28 25 86 N10 30.08R WCI 19  
HALLOCK FAIR 28 25 86 N12 30.13R WCI 18  
THF RVR FALLS FAIR 29 25 85 N14 30.08R WCI 18  
HALSTAD N/A 33 32 96 N10 N/A WCI 25  
FOSSTON CLOUDY 30 30 100 N8 30.06R FOG WCI 23  
BAUDETTE FAIR 28 24 85 NW10 30.03R WCI 19  
WASKISH MOCLDY 32 30 93 NW6 30.04R  
CROOKSTON FAIR 30 28 93 N13 30.11R WCI 20  

 
***** WEATHER ACROSS CENTRAL AND WEST MINNESOTA *****  
 
CITY SKY/WX TMP DP RH WIND PRES REMARKS  
BEMIDJI CLOUDY 32 32 98 CALM 30.02R FOG  
PARK RAPIDS CLOUDY 35 31 85 N9 30.00R FOG  
WADENA CLOUDY 34 34 100 N9 30.01R FOG  
DETROIT LAKES FOG 34 34 100 N8 30.04R VSB 3/4  
MOORHEAD CLOUDY 34 32 93 N12 30.08R FOG  
FERGUS FALLS CLOUDY 36 36 100 N10 30.06R  
ELBOW LAKE CLOUDY 33 33 99 N9 30.01R FOG  
MORRIS MN CLOUDY 36 34 93 N8 30.00R FOG  
STAPLES CLOUDY 32 32 100 N6 30.00R FOG  
WHEATON CLOUDY 34 34 100 NW9 30.05R FOG  

 
***** WEATHER ELSEWHERE ACROSS MINNESOTA *****  
 
CITY SKY/WX TMP DP RH WIND PRES REMARKS  
DULUTH CLOUDY 34 32 92 N8 29.94R FOG  
INTRNTL FALLS CLOUDY 34 31 88 NW8 30.01R  
ELY CLOUDY 32 32 100 N3 29.96R FOG  
CLOQUET CLOUDY 34 30 86 NW7 29.96R FOG  
BRAINERD CLOUDY 34 33 96 N10 29.99R FOG  
HIBBING CLOUDY 32 31 96 N9 29.95R FOG WCI 24  
ALEXANDRIA CLOUDY 34 33 96 N10 29.98R  
SAINT CLOUD CLOUDY 35 34 96 N8 29.97R  
MINNEAPOLIS DRIZZLE 38 35 89 N8 29.92R FOG  

 
 
***** WEATHER ACROSS SOUTH DAKOTA *****  
 
CITY SKY/WX TMP DP RH WIND PRES REMARKS  
SIOUX FALLS CLOUDY 38 36 92 NE18G28 29.91R  
BROOKINGS CLOUDY 35 33 92 N14 29.94R  
WATERTOWN CLOUDY 35 33 92 N14 29.96R  
HURON MOCLDY 36 35 96 N14 30.00R  
SISSETON N/A 34 34 100 N13 30.02R WCI 25  
ABERDEEN CLOUDY 34 31 88 N12 30.05R  
MITCHELL CLOUDY 38 36 92 N18 29.96R  
PIERRE FAIR 37 34 89 N8 30.02R  
MOBRIDGE FAIR 34 29 82 VRB3 30.04R  
RAPID CITY FAIR 40 36 86 N5 30.06R  

 
 
***** SOME WEATHER IN NEARBY STATES *****  
 
CITY SKY/WX TMP DP RH WIND PRES REMARKS  
GLASGOW MT FAIR 30 26 85 SE9 30.05R WCI 22  
GREAT FALLS MT FAIR 28 18 66 S6 29.98F WCI 22  
CHEYENNE WY CLOUDY 34 31 88 N15G29 30.04R WCI 24  
SCOTTSBLUFF NE MOCLDY 41 34 76 N16G24 30.06R  
OMAHA NE CLOUDY 51 47 86 N14 29.81R FOG  
DES MOINES IA MOCLDY 57 47 69 S8 29.80R  
DAVENPORT IA FAIR 56 47 71 S20 29.86S  
CHICAGO IL PTSUNNY 55 45 68 S15 29.91S  
EAU CLAIRE WI CLOUDY 38 38 100 N6 29.90S FOG  
LA CROSSE WI CLOUDY 42 40 92 CALM 29.86R FOG  

 
 
***** SOME NATIONAL WEATHER *****  
 
CITY SKY/WX TMP DP RH WIND PRES REMARKS  
LA GUARDIA NY CLOUDY 40 27 59 S14G23 30.45F  
RALEIGH NC FAIR 43 32 65 S5 30.51F  
ATLANTA GA PTSUNNY 55 46 71 E10 30.44R  
NEW ORLEANS LA FAIR 69 66 90 SE16 30.16R  
OKLAHOMA CITY MOCLDY 64 55 72 S20G25 29.78R  
ALBUQUERQUE NM MOCLDY 47 27 45 NW18G32 29.92R  
SALT LAKE CITY FAIR 35 33 92 SE7 30.18S  
LOS ANGELES CA FAIR 52 48 86 NE6 30.23R  
BOISE ID MOCLDY 45 26 47 SE16 30.02R  
SEATTLE WA LGT RAIN 47 42 83 SE12 29.77F  

 
 
*** WEATHER ACROSS MANITOBA...SASKATCHEWAN AND ONTARIO ***  
***ONTARIO***  
 
CITY SKY/WX TMP DP RH WIND PRES REMARKS  
GERALDTON FLURRIES 32 28 86 N7 29.91R  
THUNDER BAY PTSUNNY 30 30 100 SW3 29.95R  
SIOUX LOOKOUT CLOUDY 32 25 74 N6 30.01R  
TORONTO CLOUDY 34 32 93 SE3 30.06F FOG  
BIG TROUT LK CLEAR -2 -8 78 N7 30.26R WCI -16  
PICKLE LAKE CLOUDY 23 16 74 NE10G20 30.05R WCI 12  
DRYDEN CLOUDY 32 27 80 NE7 30.01R  
KENORA MOCLDY 28 25 86 N7 30.05R WCI 21  

 
*** MANITOBA***  
 
CITY SKY/WX TMP DP RH WIND PRES REMARKS  
BRANDON CLOUDY 27 21 80 N5 30.18R WCI 21  
DAUPHIN CLOUDY 27 23 86 N5 30.22R WCI 21  
ISLAND LAKE PTCLDY 0 -6 78 NE6 30.33 WCI -12  
PILOT MOUND N/A 19 18 93 NW5 N/A WCI 13  
THE PAS FLURRIES 10 5 79 E6 30.27R WCI 1  
THOMPSON CLEAR -20 -26 76 NE6 30.38R WCI -36  
WINNIPEG CLOUDY 28 25 86 NW14 30.15R WCI 17  
LYNN LAKE MOCLDY -13 -17 84 E5 30.31R WCI -25  
CHURCHILL CLEAR -18 -26 69 W12 30.41S WCI -40  
GILLAM CLEAR -18 -24 76 VRB2 30.40R  

 
***SASKATCHEWAN***  
 
CITY SKY/WX TMP DP RH WIND PRES REMARKS  
ESTEVAN PTCLDY 25 21 86 E9 30.13R WCI 15  
KINDERSLEY PTCLDY 23 21 93 E9 30.02S WCI 13  
LLOYDMINSTER FOG 19 19 100 SE6 30.03S VSB 1/4 WCI 11  
PRINCE ALBERT MOCLDY 25 19 80 SE6 30.15R WCI 18  
REGINA CLEAR 23 21 93 SE7 30.12R WCI 15  
YORKTON CLOUDY 21 18 86 SE5 30.18R WC  
 
CLICK HERE TO GO TO PREVIOUS BULLETINS.

The Nexlab ND Page
The Nexlab MN Page Main Text Page